GFSFLT1_prec_pwat_126.txt.gz
Precipitable_Water
0.45 0.46 0.48 0.48 0.47 0.47 0.45 0.44 0.43 0.44 0.44 0.44 0.46 0.46 0.47 0.54 0.66 0.85 1.13 1.43 1.57 1.70 1.75 1.57 1.63 1.45 1.39 1.40 1.28 1.29 1.18 1.11
0.44 0.46 0.46 0.46 0.45 0.44 0.43 0.42 0.42 0.42 0.41 0.39 0.37 0.37 0.37 0.39 0.44 0.58 0.79 1.07 1.34 1.49 1.71 1.60 1.45 1.47 1.42 1.52 1.42 1.27 1.29 1.37
0.42 0.43 0.44 0.44 0.44 0.44 0.42 0.41 0.41 0.41 0.41 0.41 0.41 0.39 0.40 0.39 0.40 0.42 0.53 0.79 1.00 1.27 1.46 1.63 1.47 1.46 1.46 1.51 1.42 1.31 1.33 1.43
0.42 0.43 0.44 0.44 0.42 0.43 0.43 0.43 0.42 0.43 0.43 0.42 0.42 0.43 0.41 0.40 0.40 0.40 0.41 0.49 0.77 0.96 1.19 1.38 1.63 1.45 1.31 1.49 1.43 1.33 1.23 1.37
0.44 0.44 0.44 0.44 0.43 0.45 0.45 0.45 0.45 0.45 0.47 0.44 0.43 0.40 0.38 0.40 0.41 0.42 0.42 0.43 0.49 0.76 0.94 1.10 1.33 1.52 1.53 1.54 1.34 1.29 1.30 1.23
0.44 0.44 0.44 0.45 0.46 0.46 0.47 0.49 0.49 0.50 0.50 0.48 0.45 0.41 0.41 0.43 0.43 0.43 0.44 0.44 0.42 0.50 0.75 0.91 1.05 1.24 1.43 1.34 1.31 1.25 1.37 1.25
0.47 0.47 0.47 0.46 0.48 0.48 0.47 0.46 0.45 0.47 0.46 0.46 0.44 0.43 0.41 0.42 0.44 0.43 0.44 0.44 0.44 0.45 0.54 0.72 0.87 1.06 1.15 1.32 1.36 1.40 1.35 1.45
0.43 0.42 0.43 0.44 0.45 0.45 0.45 0.45 0.45 0.47 0.47 0.48 0.48 0.47 0.47 0.46 0.46 0.47 0.47 0.45 0.45 0.46 0.48 0.57 0.69 0.80 0.97 1.15 1.32 1.38 1.36 1.36
0.42 0.42 0.43 0.43 0.43 0.43 0.44 0.46 0.46 0.47 0.49 0.52 0.54 0.55 0.54 0.53 0.52 0.52 0.52 0.50 0.50 0.52 0.52 0.51 0.57 0.69 0.78 0.88 1.13 1.31 1.39 1.45
0.41 0.41 0.41 0.41 0.41 0.43 0.47 0.48 0.49 0.51 0.53 0.55 0.57 0.59 0.60 0.60 0.61 0.60 0.58 0.57 0.56 0.57 0.57 0.55 0.54 0.58 0.72 0.80 0.90 1.09 1.24 1.32
0.39 0.40 0.41 0.43 0.46 0.49 0.53 0.55 0.55 0.57 0.58 0.60 0.60 0.62 0.63 0.62 0.61 0.60 0.61 0.60 0.59 0.57 0.57 0.59 0.58 0.57 0.59 0.69 0.78 0.91 1.10 1.14
0.40 0.42 0.44 0.46 0.50 0.52 0.55 0.60 0.61 0.61 0.61 0.63 0.65 0.65 0.66 0.64 0.62 0.61 0.60 0.59 0.57 0.58 0.63 0.64 0.65 0.65 0.63 0.60 0.68 0.87 0.89 0.94
0.42 0.45 0.47 0.49 0.52 0.55 0.58 0.59 0.60 0.60 0.60 0.61 0.62 0.64 0.66 0.64 0.65 0.66 0.65 0.62 0.63 0.66 0.69 0.70 0.67 0.67 0.70 0.68 0.59 0.70 0.88 0.85
0.45 0.47 0.48 0.51 0.53 0.54 0.55 0.57 0.57 0.58 0.59 0.59 0.60 0.64 0.64 0.65 0.66 0.70 0.69 0.67 0.64 0.63 0.65 0.66 0.67 0.70 0.72 0.75 0.71 0.68 0.75 0.89
0.45 0.47 0.48 0.50 0.51 0.52 0.54 0.55 0.56 0.57 0.58 0.59 0.59 0.62 0.65 0.68 0.69 0.69 0.66 0.66 0.64 0.64 0.65 0.63 0.66 0.69 0.70 0.76 0.73 0.64 0.63 0.65
0.43 0.43 0.43 0.43 0.41 0.44 0.49 0.53 0.55 0.56 0.57 0.57 0.58 0.61 0.64 0.67 0.69 0.71 0.71 0.69 0.69 0.69 0.70 0.70 0.66 0.66 0.70 0.70 0.70 0.65 0.63 0.63
0.36 0.32 0.31 0.29 0.27 0.25 0.28 0.29 0.35 0.44 0.52 0.54 0.57 0.60 0.62 0.63 0.65 0.66 0.67 0.67 0.68 0.70 0.72 0.73 0.73 0.69 0.64 0.67 0.67 0.63 0.63 0.68
0.27 0.25 0.22 0.21 0.21 0.21 0.20 0.20 0.21 0.21 0.26 0.30 0.34 0.43 0.51 0.55 0.58 0.60 0.60 0.62 0.65 0.64 0.65 0.68 0.69 0.72 0.75 0.72 0.69 0.68 0.68 0.66
0.24 0.22 0.19 0.19 0.19 0.19 0.18 0.17 0.17 0.16 0.16 0.17 0.20 0.21 0.22 0.25 0.28 0.34 0.39 0.46 0.51 0.53 0.57 0.62 0.65 0.68 0.71 0.72 0.74 0.74 0.75 0.75

GFSFLT1_prec_pwat_132.txt.gz
Precipitable_Water
0.42 0.43 0.44 0.45 0.46 0.46 0.47 0.47 0.46 0.45 0.45 0.45 0.44 0.43 0.43 0.44 0.45 0.44 0.46 0.50 0.48 0.49 0.52 0.58 0.77 0.87 0.88 1.06 1.45 1.53 1.42 1.37
0.44 0.44 0.44 0.44 0.44 0.44 0.45 0.44 0.45 0.45 0.43 0.42 0.41 0.41 0.43 0.44 0.44 0.45 0.47 0.45 0.47 0.46 0.44 0.45 0.50 0.61 0.80 0.94 1.09 1.33 1.23 1.43
0.40 0.41 0.42 0.42 0.42 0.43 0.44 0.44 0.45 0.45 0.44 0.45 0.44 0.44 0.44 0.45 0.46 0.45 0.46 0.46 0.45 0.45 0.44 0.44 0.45 0.47 0.61 0.76 0.91 1.15 1.23 1.26
0.36 0.38 0.40 0.41 0.42 0.43 0.43 0.44 0.45 0.45 0.46 0.45 0.45 0.45 0.44 0.43 0.44 0.45 0.45 0.46 0.46 0.46 0.47 0.48 0.46 0.48 0.49 0.65 0.85 0.95 1.05 1.30
0.38 0.38 0.39 0.41 0.42 0.45 0.44 0.46 0.46 0.46 0.47 0.45 0.44 0.43 0.41 0.43 0.44 0.45 0.45 0.47 0.48 0.49 0.48 0.48 0.48 0.47 0.47 0.50 0.72 0.90 1.00 1.01
0.38 0.40 0.41 0.42 0.43 0.42 0.43 0.44 0.43 0.44 0.44 0.44 0.43 0.42 0.43 0.43 0.43 0.44 0.45 0.47 0.48 0.49 0.50 0.50 0.49 0.50 0.51 0.51 0.60 0.76 0.94 0.99
0.40 0.42 0.41 0.39 0.40 0.39 0.40 0.41 0.41 0.42 0.43 0.43 0.41 0.40 0.41 0.41 0.42 0.43 0.47 0.49 0.50 0.51 0.52 0.53 0.52 0.50 0.48 0.52 0.60 0.70 0.88 0.96
0.39 0.37 0.37 0.38 0.39 0.40 0.41 0.43 0.43 0.45 0.45 0.45 0.44 0.44 0.45 0.45 0.45 0.46 0.47 0.50 0.52 0.54 0.56 0.55 0.56 0.54 0.51 0.50 0.54 0.67 0.75 0.87
0.36 0.38 0.39 0.39 0.40 0.40 0.42 0.44 0.44 0.46 0.46 0.46 0.46 0.48 0.51 0.52 0.53 0.54 0.54 0.54 0.55 0.59 0.60 0.59 0.58 0.57 0.53 0.51 0.51 0.55 0.70 0.80
0.37 0.38 0.39 0.40 0.40 0.41 0.43 0.46 0.48 0.48 0.49 0.50 0.50 0.52 0.54 0.57 0.60 0.58 0.57 0.58 0.59 0.61 0.62 0.62 0.63 0.61 0.58 0.55 0.53 0.53 0.68 0.73
0.37 0.38 0.39 0.40 0.42 0.44 0.48 0.51 0.51 0.52 0.51 0.49 0.50 0.53 0.59 0.61 0.62 0.61 0.61 0.62 0.62 0.64 0.64 0.64 0.66 0.68 0.65 0.60 0.57 0.59 0.58 0.69
0.37 0.39 0.39 0.40 0.42 0.47 0.52 0.54 0.53 0.52 0.51 0.50 0.52 0.56 0.60 0.61 0.62 0.63 0.63 0.65 0.65 0.65 0.66 0.67 0.68 0.68 0.67 0.65 0.63 0.65 0.63 0.63
0.39 0.37 0.38 0.38 0.38 0.46 0.51 0.53 0.53 0.53 0.52 0.52 0.54 0.57 0.59 0.59 0.60 0.62 0.63 0.62 0.64 0.63 0.63 0.64 0.65 0.65 0.66 0.65 0.65 0.68 0.68 0.68
0.36 0.36 0.38 0.32 0.35 0.41 0.39 0.42 0.47 0.52 0.54 0.53 0.55 0.56 0.56 0.57 0.58 0.59 0.61 0.61 0.61 0.61 0.60 0.60 0.59 0.60 0.61 0.63 0.64 0.63 0.62 0.63
0.37 0.37 0.38 0.33 0.33 0.32 0.32 0.28 0.27 0.31 0.39 0.51 0.54 0.54 0.55 0.56 0.57 0.59 0.61 0.63 0.64 0.65 0.63 0.62 0.64 0.65 0.64 0.63 0.64 0.64 0.65 0.66
0.38 0.35 0.34 0.30 0.27 0.25 0.22 0.22 0.22 0.22 0.22 0.23 0.28 0.38 0.44 0.48 0.50 0.55 0.59 0.59 0.60 0.63 0.64 0.66 0.69 0.69 0.67 0.68 0.69 0.65 0.65 0.64
0.36 0.32 0.27 0.22 0.19 0.18 0.18 0.18 0.20 0.18 0.17 0.17 0.19 0.20 0.21 0.22 0.25 0.30 0.37 0.43 0.48 0.52 0.56 0.58 0.61 0.64 0.67 0.70 0.70 0.66 0.63 0.63
0.32 0.27 0.23 0.22 0.19 0.17 0.16 0.15 0.17 0.16 0.16 0.16 0.16 0.16 0.16 0.18 0.19 0.20 0.20 0.21 0.24 0.27 0.34 0.41 0.46 0.54 0.58 0.60 0.63 0.64 0.63 0.60
0.27 0.24 0.21 0.20 0.19 0.17 0.16 0.16 0.15 0.15 0.14 0.14 0.15 0.15 0.14 0.15 0.15 0.15 0.16 0.17 0.18 0.18 0.19 0.20 0.23 0.26 0.33 0.45 0.52 0.54 0.58 0.60

GFSFLT1_prec_pwat_135.txt.gz
Precipitable_Water
0.41 0.42 0.44 0.45 0.46 0.47 0.47 0.47 0.48 0.47 0.47 0.47 0.46 0.46 0.46 0.46 0.47 0.47 0.50 0.49 0.48 0.50 0.49 0.48 0.48 0.50 0.62 0.78 0.79 0.76 0.71 1.14
0.41 0.42 0.43 0.43 0.44 0.44 0.44 0.44 0.45 0.44 0.43 0.41 0.41 0.41 0.43 0.45 0.46 0.47 0.47 0.48 0.49 0.47 0.47 0.48 0.49 0.46 0.49 0.56 0.67 0.68 0.71 1.02
0.38 0.39 0.40 0.41 0.42 0.43 0.43 0.44 0.45 0.44 0.43 0.43 0.42 0.42 0.43 0.44 0.46 0.46 0.47 0.47 0.48 0.47 0.47 0.46 0.48 0.49 0.49 0.49 0.55 0.65 0.71 0.80
0.34 0.37 0.39 0.41 0.41 0.42 0.41 0.42 0.42 0.43 0.44 0.43 0.43 0.43 0.42 0.42 0.43 0.44 0.47 0.49 0.49 0.48 0.49 0.48 0.48 0.49 0.46 0.50 0.53 0.57 0.61 0.73
0.35 0.37 0.39 0.41 0.41 0.41 0.39 0.40 0.40 0.39 0.40 0.39 0.38 0.36 0.35 0.38 0.40 0.43 0.44 0.48 0.50 0.51 0.51 0.51 0.50 0.50 0.48 0.47 0.51 0.53 0.64 0.65
0.36 0.37 0.39 0.40 0.39 0.39 0.39 0.41 0.40 0.41 0.41 0.41 0.39 0.37 0.38 0.40 0.41 0.42 0.43 0.46 0.48 0.49 0.51 0.52 0.52 0.52 0.51 0.49 0.49 0.51 0.56 0.67
0.37 0.39 0.38 0.38 0.40 0.40 0.40 0.40 0.40 0.41 0.41 0.41 0.41 0.40 0.41 0.41 0.42 0.41 0.42 0.45 0.48 0.51 0.52 0.53 0.53 0.52 0.51 0.50 0.49 0.47 0.49 0.56
0.37 0.36 0.37 0.39 0.38 0.38 0.39 0.41 0.41 0.43 0.43 0.43 0.43 0.42 0.43 0.43 0.44 0.45 0.47 0.51 0.54 0.56 0.56 0.55 0.55 0.55 0.55 0.54 0.51 0.48 0.49 0.52
0.36 0.36 0.37 0.38 0.39 0.40 0.41 0.43 0.43 0.45 0.46 0.45 0.46 0.46 0.46 0.47 0.49 0.51 0.54 0.56 0.61 0.64 0.63 0.61 0.60 0.59 0.58 0.58 0.56 0.52 0.51 0.51
0.35 0.37 0.38 0.38 0.38 0.40 0.44 0.46 0.47 0.49 0.49 0.48 0.47 0.47 0.48 0.51 0.54 0.58 0.61 0.64 0.65 0.63 0.62 0.61 0.60 0.60 0.61 0.62 0.59 0.55 0.53 0.53
0.37 0.38 0.39 0.37 0.36 0.42 0.46 0.50 0.51 0.52 0.51 0.49 0.48 0.50 0.54 0.57 0.59 0.61 0.62 0.64 0.66 0.65 0.62 0.61 0.62 0.63 0.65 0.68 0.62 0.60 0.56 0.56
0.37 0.38 0.37 0.34 0.32 0.37 0.41 0.49 0.47 0.47 0.53 0.51 0.51 0.53 0.55 0.58 0.59 0.60 0.61 0.62 0.62 0.63 0.64 0.64 0.65 0.67 0.69 0.69 0.68 0.64 0.62 0.63
0.37 0.38 0.36 0.32 0.31 0.37 0.40 0.36 0.30 0.37 0.50 0.51 0.53 0.54 0.57 0.57 0.57 0.58 0.60 0.59 0.61 0.61 0.62 0.61 0.62 0.64 0.66 0.67 0.65 0.65 0.62 0.61
0.36 0.36 0.36 0.32 0.34 0.36 0.37 0.29 0.25 0.25 0.33 0.39 0.44 0.48 0.54 0.55 0.56 0.57 0.58 0.59 0.61 0.61 0.60 0.58 0.58 0.60 0.60 0.61 0.63 0.62 0.63 0.62
0.36 0.36 0.36 0.34 0.35 0.32 0.27 0.23 0.22 0.21 0.21 0.24 0.26 0.29 0.35 0.40 0.46 0.50 0.55 0.58 0.60 0.61 0.63 0.64 0.64 0.62 0.61 0.61 0.61 0.62 0.63 0.62
0.35 0.35 0.33 0.32 0.32 0.23 0.22 0.19 0.19 0.20 0.18 0.19 0.21 0.22 0.22 0.23 0.25 0.33 0.40 0.43 0.49 0.55 0.58 0.62 0.65 0.66 0.66 0.67 0.68 0.66 0.66 0.65
0.36 0.35 0.31 0.25 0.22 0.18 0.18 0.20 0.18 0.17 0.16 0.16 0.17 0.17 0.17 0.17 0.18 0.18 0.20 0.21 0.27 0.36 0.40 0.43 0.48 0.55 0.59 0.62 0.65 0.66 0.67 0.65
0.38 0.34 0.28 0.25 0.21 0.19 0.15 0.16 0.17 0.17 0.16 0.16 0.15 0.15 0.15 0.15 0.16 0.15 0.15 0.16 0.16 0.17 0.18 0.20 0.23 0.30 0.38 0.46 0.54 0.55 0.57 0.60
0.35 0.29 0.23 0.23 0.20 0.17 0.16 0.17 0.15 0.14 0.15 0.15 0.15 0.14 0.14 0.14 0.14 0.14 0.14 0.15 0.15 0.15 0.15 0.16 0.16 0.17 0.17 0.18 0.21 0.25 0.35 0.44

GFSFLT1_prec_pwat_138.txt.gz
Precipitable_Water
0.42 0.43 0.44 0.45 0.46 0.46 0.46 0.47 0.49 0.49 0.48 0.48 0.48 0.48 0.48 0.48 0.48 0.48 0.49 0.50 0.51 0.51 0.52 0.53 0.55 0.54 0.54 0.56 0.62 0.72 0.70 0.66
0.41 0.42 0.42 0.42 0.43 0.44 0.44 0.44 0.46 0.44 0.42 0.41 0.41 0.41 0.44 0.46 0.47 0.48 0.49 0.49 0.49 0.49 0.49 0.50 0.52 0.51 0.52 0.56 0.60 0.60 0.64 0.69
0.37 0.38 0.40 0.41 0.43 0.44 0.43 0.43 0.43 0.41 0.40 0.40 0.39 0.39 0.40 0.41 0.45 0.47 0.49 0.49 0.50 0.50 0.49 0.48 0.50 0.50 0.52 0.55 0.56 0.54 0.60 0.72
0.35 0.36 0.39 0.41 0.41 0.41 0.40 0.40 0.40 0.40 0.41 0.40 0.40 0.40 0.40 0.39 0.40 0.41 0.42 0.45 0.47 0.49 0.50 0.52 0.51 0.52 0.50 0.53 0.56 0.56 0.52 0.65
0.35 0.37 0.38 0.39 0.39 0.40 0.40 0.40 0.40 0.40 0.41 0.39 0.38 0.36 0.35 0.38 0.40 0.42 0.43 0.44 0.44 0.46 0.47 0.49 0.50 0.53 0.53 0.54 0.56 0.56 0.55 0.50
0.35 0.37 0.38 0.38 0.39 0.41 0.41 0.42 0.41 0.41 0.42 0.41 0.39 0.37 0.38 0.39 0.40 0.40 0.42 0.45 0.47 0.48 0.49 0.49 0.49 0.51 0.52 0.54 0.56 0.58 0.59 0.54
0.37 0.39 0.39 0.39 0.41 0.41 0.42 0.42 0.41 0.43 0.44 0.42 0.40 0.39 0.40 0.40 0.41 0.42 0.44 0.46 0.48 0.49 0.50 0.50 0.51 0.52 0.52 0.54 0.55 0.55 0.55 0.57
0.36 0.37 0.37 0.38 0.39 0.41 0.42 0.42 0.42 0.45 0.45 0.43 0.42 0.43 0.43 0.43 0.44 0.45 0.45 0.47 0.49 0.52 0.53 0.52 0.52 0.54 0.55 0.56 0.57 0.56 0.54 0.53
0.37 0.38 0.38 0.38 0.39 0.42 0.42 0.42 0.44 0.44 0.47 0.46 0.46 0.47 0.46 0.46 0.47 0.48 0.50 0.51 0.54 0.59 0.61 0.63 0.64 0.65 0.66 0.64 0.60 0.59 0.58 0.55
0.36 0.38 0.38 0.37 0.37 0.37 0.37 0.43 0.45 0.41 0.48 0.49 0.49 0.49 0.49 0.49 0.51 0.53 0.55 0.59 0.62 0.67 0.69 0.70 0.71 0.72 0.71 0.70 0.67 0.64 0.62 0.59
0.37 0.38 0.36 0.35 0.35 0.34 0.36 0.42 0.37 0.39 0.46 0.48 0.51 0.51 0.52 0.53 0.55 0.56 0.58 0.61 0.63 0.63 0.65 0.68 0.68 0.67 0.66 0.68 0.70 0.67 0.64 0.63
0.37 0.35 0.34 0.37 0.33 0.34 0.40 0.41 0.28 0.33 0.39 0.42 0.45 0.50 0.53 0.55 0.57 0.58 0.58 0.60 0.59 0.62 0.62 0.64 0.64 0.66 0.66 0.65 0.65 0.68 0.63 0.64
0.34 0.32 0.32 0.35 0.34 0.36 0.42 0.37 0.23 0.28 0.31 0.34 0.39 0.41 0.42 0.52 0.56 0.57 0.59 0.59 0.60 0.60 0.60 0.57 0.59 0.63 0.65 0.65 0.65 0.67 0.65 0.61
0.33 0.31 0.33 0.34 0.32 0.40 0.35 0.29 0.22 0.23 0.27 0.27 0.27 0.30 0.33 0.37 0.42 0.53 0.57 0.58 0.59 0.60 0.60 0.59 0.56 0.56 0.57 0.60 0.62 0.64 0.64 0.62
0.32 0.31 0.35 0.36 0.37 0.35 0.28 0.26 0.24 0.23 0.22 0.23 0.23 0.23 0.24 0.26 0.29 0.34 0.41 0.48 0.55 0.57 0.59 0.60 0.61 0.62 0.60 0.58 0.58 0.58 0.60 0.62
0.33 0.35 0.35 0.35 0.35 0.27 0.25 0.22 0.21 0.22 0.18 0.18 0.18 0.19 0.20 0.20 0.20 0.20 0.22 0.25 0.31 0.39 0.47 0.53 0.58 0.60 0.61 0.62 0.63 0.63 0.61 0.62
0.36 0.36 0.35 0.32 0.26 0.22 0.21 0.21 0.19 0.19 0.17 0.16 0.17 0.17 0.17 0.17 0.17 0.17 0.17 0.18 0.18 0.19 0.20 0.22 0.28 0.37 0.46 0.52 0.56 0.59 0.62 0.62
0.37 0.37 0.35 0.30 0.25 0.20 0.18 0.19 0.20 0.18 0.16 0.16 0.16 0.16 0.15 0.15 0.16 0.16 0.16 0.16 0.16 0.16 0.16 0.16 0.15 0.16 0.18 0.20 0.26 0.37 0.42 0.46
0.39 0.39 0.34 0.27 0.25 0.20 0.16 0.17 0.16 0.17 0.17 0.16 0.16 0.15 0.15 0.15 0.15 0.15 0.16 0.16 0.15 0.15 0.15 0.16 0.15 0.14 0.14 0.15 0.16 0.17 0.17 0.20

GFSFLT1_prec_pwat_141.txt.gz
Precipitable_Water
0.42 0.44 0.45 0.45 0.46 0.46 0.46 0.47 0.49 0.47 0.45 0.45 0.44 0.43 0.44 0.45 0.46 0.48 0.50 0.51 0.52 0.51 0.51 0.53 0.55 0.54 0.54 0.57 0.60 0.66 0.76 0.76
0.41 0.43 0.44 0.43 0.44 0.45 0.44 0.43 0.45 0.43 0.40 0.38 0.38 0.37 0.39 0.41 0.44 0.45 0.47 0.49 0.51 0.52 0.50 0.50 0.52 0.50 0.52 0.56 0.57 0.57 0.60 0.70
0.38 0.40 0.42 0.43 0.43 0.45 0.43 0.42 0.42 0.41 0.41 0.41 0.40 0.40 0.41 0.42 0.44 0.46 0.47 0.47 0.48 0.47 0.47 0.49 0.52 0.52 0.52 0.53 0.55 0.56 0.58 0.60
0.36 0.38 0.40 0.43 0.42 0.42 0.40 0.42 0.42 0.43 0.43 0.42 0.41 0.42 0.41 0.41 0.41 0.42 0.44 0.45 0.46 0.46 0.46 0.46 0.46 0.50 0.51 0.54 0.55 0.55 0.53 0.58
0.36 0.37 0.38 0.40 0.41 0.42 0.43 0.44 0.43 0.43 0.44 0.42 0.41 0.38 0.36 0.39 0.40 0.42 0.43 0.45 0.45 0.46 0.46 0.46 0.46 0.47 0.46 0.48 0.54 0.57 0.57 0.52
0.35 0.36 0.38 0.40 0.41 0.42 0.44 0.44 0.44 0.45 0.45 0.45 0.42 0.40 0.40 0.40 0.40 0.41 0.42 0.44 0.46 0.46 0.47 0.48 0.47 0.49 0.49 0.48 0.49 0.51 0.55 0.55
0.35 0.39 0.40 0.40 0.42 0.43 0.44 0.44 0.44 0.44 0.42 0.45 0.44 0.42 0.41 0.40 0.42 0.42 0.44 0.46 0.49 0.50 0.50 0.50 0.51 0.51 0.50 0.51 0.52 0.52 0.52 0.53
0.36 0.37 0.38 0.39 0.40 0.42 0.43 0.42 0.42 0.40 0.42 0.46 0.47 0.46 0.45 0.45 0.46 0.47 0.47 0.48 0.50 0.51 0.53 0.53 0.53 0.54 0.56 0.57 0.53 0.53 0.54 0.54
0.36 0.37 0.39 0.37 0.38 0.39 0.37 0.38 0.41 0.37 0.41 0.43 0.47 0.50 0.49 0.49 0.49 0.50 0.50 0.51 0.53 0.56 0.57 0.59 0.61 0.63 0.63 0.63 0.63 0.64 0.60 0.56
0.35 0.36 0.37 0.36 0.35 0.33 0.34 0.37 0.38 0.35 0.38 0.42 0.44 0.43 0.51 0.51 0.51 0.52 0.53 0.56 0.57 0.59 0.62 0.64 0.68 0.70 0.72 0.72 0.71 0.71 0.71 0.68
0.35 0.36 0.37 0.35 0.34 0.31 0.37 0.38 0.38 0.34 0.36 0.41 0.39 0.40 0.42 0.49 0.53 0.52 0.54 0.58 0.60 0.61 0.64 0.64 0.65 0.66 0.68 0.69 0.68 0.75 0.74 0.73
0.36 0.36 0.36 0.34 0.31 0.31 0.36 0.40 0.33 0.28 0.33 0.34 0.35 0.38 0.39 0.41 0.50 0.55 0.57 0.59 0.61 0.60 0.60 0.61 0.62 0.63 0.64 0.65 0.64 0.64 0.65 0.66
0.35 0.32 0.32 0.32 0.28 0.32 0.36 0.38 0.26 0.26 0.32 0.33 0.30 0.30 0.36 0.38 0.38 0.48 0.58 0.57 0.59 0.59 0.60 0.57 0.56 0.57 0.59 0.62 0.62 0.63 0.62 0.62
0.32 0.32 0.32 0.31 0.29 0.32 0.36 0.31 0.25 0.24 0.26 0.28 0.26 0.24 0.25 0.26 0.30 0.34 0.42 0.51 0.58 0.58 0.59 0.58 0.59 0.58 0.57 0.56 0.57 0.60 0.62 0.63
0.35 0.35 0.36 0.35 0.35 0.35 0.34 0.28 0.27 0.26 0.21 0.23 0.21 0.21 0.21 0.22 0.23 0.24 0.26 0.26 0.32 0.42 0.53 0.57 0.58 0.59 0.60 0.61 0.60 0.58 0.59 0.59
0.35 0.36 0.36 0.36 0.37 0.38 0.32 0.26 0.26 0.25 0.20 0.19 0.19 0.19 0.20 0.20 0.21 0.21 0.22 0.22 0.21 0.23 0.21 0.25 0.32 0.42 0.52 0.57 0.59 0.60 0.61 0.60
0.37 0.37 0.36 0.35 0.36 0.30 0.24 0.22 0.21 0.23 0.20 0.18 0.18 0.18 0.19 0.18 0.19 0.19 0.19 0.20 0.19 0.20 0.20 0.18 0.18 0.19 0.20 0.24 0.32 0.40 0.47 0.55
0.38 0.36 0.35 0.36 0.35 0.27 0.22 0.21 0.21 0.19 0.18 0.18 0.17 0.17 0.18 0.18 0.18 0.19 0.18 0.18 0.18 0.17 0.18 0.18 0.17 0.18 0.19 0.19 0.18 0.17 0.17 0.20
0.38 0.37 0.38 0.39 0.33 0.28 0.22 0.22 0.20 0.19 0.18 0.18 0.17 0.16 0.17 0.18 0.18 0.18 0.19 0.18 0.17 0.16 0.15 0.15 0.15 0.15 0.17 0.18 0.18 0.16 0.15 0.14

GFSFLT1_prec_pwat_144.txt.gz
Precipitable_Water
0.42 0.44 0.45 0.45 0.45 0.44 0.44 0.44 0.44 0.42 0.41 0.40 0.39 0.39 0.40 0.41 0.42 0.43 0.45 0.48 0.49 0.48 0.49 0.48 0.49 0.50 0.51 0.52 0.54 0.57 0.58 0.62
0.42 0.43 0.44 0.44 0.44 0.44 0.43 0.41 0.41 0.40 0.38 0.36 0.36 0.35 0.37 0.39 0.41 0.44 0.46 0.45 0.47 0.46 0.46 0.46 0.48 0.47 0.48 0.52 0.52 0.51 0.51 0.56
0.38 0.40 0.42 0.43 0.43 0.44 0.42 0.41 0.41 0.40 0.40 0.40 0.40 0.40 0.40 0.41 0.42 0.42 0.44 0.45 0.44 0.44 0.43 0.43 0.44 0.44 0.45 0.47 0.51 0.51 0.52 0.58
0.38 0.38 0.41 0.42 0.42 0.42 0.41 0.42 0.42 0.42 0.43 0.42 0.42 0.42 0.41 0.39 0.39 0.40 0.42 0.43 0.43 0.44 0.44 0.44 0.44 0.44 0.43 0.45 0.47 0.49 0.47 0.54
0.37 0.38 0.38 0.39 0.42 0.45 0.45 0.44 0.43 0.44 0.44 0.40 0.40 0.37 0.35 0.38 0.39 0.41 0.41 0.43 0.43 0.44 0.44 0.45 0.45 0.45 0.43 0.45 0.47 0.47 0.49 0.46
0.36 0.36 0.38 0.40 0.43 0.44 0.45 0.45 0.44 0.43 0.40 0.40 0.39 0.38 0.42 0.43 0.43 0.43 0.44 0.45 0.46 0.47 0.48 0.47 0.46 0.46 0.46 0.47 0.47 0.48 0.48 0.47
0.35 0.37 0.39 0.40 0.43 0.45 0.45 0.43 0.42 0.40 0.37 0.40 0.38 0.39 0.41 0.43 0.44 0.43 0.45 0.47 0.50 0.52 0.53 0.52 0.53 0.52 0.52 0.52 0.53 0.52 0.51 0.50
0.37 0.37 0.38 0.39 0.40 0.42 0.40 0.39 0.37 0.38 0.37 0.37 0.38 0.38 0.37 0.38 0.46 0.46 0.46 0.48 0.51 0.53 0.55 0.56 0.56 0.58 0.59 0.59 0.57 0.56 0.55 0.53
0.38 0.38 0.38 0.38 0.37 0.37 0.36 0.34 0.33 0.35 0.36 0.36 0.39 0.37 0.38 0.39 0.44 0.49 0.49 0.49 0.52 0.56 0.57 0.58 0.59 0.60 0.61 0.63 0.63 0.63 0.61 0.59
0.40 0.40 0.40 0.36 0.35 0.35 0.35 0.31 0.32 0.36 0.33 0.36 0.34 0.37 0.41 0.41 0.41 0.48 0.51 0.52 0.55 0.58 0.58 0.61 0.64 0.66 0.67 0.69 0.69 0.71 0.74 0.70
0.42 0.42 0.39 0.35 0.34 0.35 0.33 0.31 0.33 0.34 0.30 0.36 0.32 0.32 0.38 0.43 0.42 0.44 0.53 0.54 0.56 0.59 0.60 0.61 0.63 0.64 0.64 0.64 0.65 0.67 0.68 0.70
0.44 0.43 0.39 0.35 0.35 0.33 0.30 0.32 0.34 0.28 0.26 0.34 0.31 0.29 0.29 0.31 0.36 0.41 0.48 0.57 0.58 0.58 0.59 0.58 0.57 0.57 0.58 0.59 0.61 0.62 0.61 0.60
0.47 0.43 0.38 0.36 0.31 0.30 0.31 0.32 0.32 0.25 0.25 0.28 0.26 0.24 0.25 0.25 0.26 0.29 0.34 0.46 0.57 0.58 0.58 0.58 0.57 0.58 0.57 0.55 0.56 0.59 0.60 0.59
0.44 0.40 0.34 0.33 0.34 0.30 0.30 0.34 0.32 0.26 0.26 0.25 0.23 0.22 0.23 0.23 0.23 0.26 0.24 0.25 0.30 0.40 0.50 0.55 0.57 0.58 0.59 0.60 0.58 0.56 0.55 0.57
0.39 0.35 0.34 0.35 0.34 0.30 0.31 0.33 0.32 0.27 0.24 0.21 0.21 0.21 0.22 0.22 0.22 0.22 0.22 0.21 0.22 0.22 0.24 0.30 0.37 0.48 0.52 0.55 0.57 0.58 0.58 0.57
0.34 0.34 0.36 0.37 0.36 0.35 0.36 0.33 0.27 0.26 0.24 0.21 0.20 0.20 0.21 0.21 0.21 0.20 0.21 0.20 0.20 0.20 0.19 0.19 0.22 0.22 0.23 0.25 0.34 0.42 0.50 0.56
0.36 0.38 0.38 0.37 0.36 0.35 0.36 0.31 0.26 0.24 0.22 0.18 0.18 0.19 0.19 0.19 0.20 0.21 0.19 0.18 0.17 0.17 0.18 0.18 0.18 0.21 0.21 0.19 0.18 0.18 0.20 0.22
0.38 0.39 0.38 0.36 0.36 0.35 0.34 0.28 0.24 0.22 0.19 0.19 0.18 0.18 0.18 0.19 0.20 0.21 0.19 0.17 0.16 0.16 0.15 0.16 0.16 0.18 0.20 0.19 0.17 0.16 0.15 0.16
0.39 0.39 0.37 0.36 0.37 0.35 0.35 0.29 0.23 0.21 0.20 0.20 0.19 0.18 0.18 0.19 0.20 0.20 0.20 0.19 0.17 0.15 0.15 0.15 0.15 0.17 0.18 0.19 0.17 0.16 0.13 0.13

GFSFLT1_prec_pwat_147.txt.gz
Precipitable_Water
0.43 0.43 0.45 0.45 0.43 0.42 0.41 0.41 0.40 0.39 0.38 0.38 0.38 0.38 0.38 0.40 0.41 0.40 0.41 0.40 0.40 0.40 0.41 0.42 0.44 0.43 0.42 0.42 0.42 0.46 0.52 0.53
0.45 0.43 0.42 0.42 0.42 0.41 0.41 0.39 0.39 0.38 0.37 0.36 0.36 0.34 0.36 0.37 0.39 0.39 0.39 0.39 0.39 0.38 0.38 0.39 0.40 0.39 0.41 0.41 0.41 0.41 0.43 0.52
0.43 0.40 0.40 0.40 0.39 0.40 0.41 0.41 0.41 0.40 0.40 0.39 0.38 0.37 0.36 0.38 0.39 0.40 0.40 0.39 0.40 0.39 0.38 0.38 0.40 0.39 0.40 0.40 0.42 0.40 0.41 0.49
0.40 0.38 0.39 0.39 0.39 0.41 0.42 0.42 0.42 0.41 0.41 0.38 0.37 0.35 0.35 0.36 0.36 0.37 0.40 0.42 0.42 0.42 0.43 0.42 0.42 0.42 0.39 0.40 0.41 0.41 0.39 0.44
0.39 0.39 0.39 0.39 0.40 0.43 0.44 0.43 0.42 0.41 0.41 0.36 0.33 0.31 0.29 0.32 0.32 0.36 0.42 0.42 0.43 0.45 0.47 0.46 0.45 0.44 0.42 0.42 0.43 0.43 0.44 0.40
0.40 0.39 0.41 0.42 0.43 0.44 0.44 0.43 0.41 0.41 0.40 0.36 0.31 0.30 0.32 0.32 0.34 0.36 0.39 0.43 0.45 0.47 0.48 0.49 0.50 0.50 0.50 0.50 0.49 0.47 0.47 0.45
0.42 0.42 0.43 0.43 0.45 0.44 0.43 0.41 0.39 0.39 0.38 0.35 0.30 0.29 0.30 0.31 0.34 0.36 0.40 0.45 0.46 0.49 0.51 0.52 0.54 0.54 0.55 0.56 0.56 0.55 0.53 0.51
0.42 0.40 0.42 0.44 0.43 0.41 0.38 0.37 0.35 0.37 0.35 0.33 0.29 0.29 0.29 0.32 0.36 0.39 0.42 0.46 0.47 0.50 0.53 0.54 0.55 0.56 0.58 0.59 0.59 0.59 0.59 0.57
0.44 0.43 0.44 0.44 0.41 0.37 0.36 0.34 0.34 0.34 0.34 0.30 0.29 0.31 0.30 0.31 0.35 0.40 0.41 0.49 0.51 0.54 0.56 0.56 0.57 0.60 0.62 0.63 0.63 0.62 0.63 0.63
0.45 0.47 0.47 0.43 0.39 0.36 0.35 0.32 0.32 0.32 0.35 0.27 0.29 0.31 0.28 0.28 0.30 0.35 0.38 0.53 0.56 0.56 0.57 0.59 0.62 0.63 0.64 0.64 0.63 0.64 0.68 0.69
0.49 0.49 0.46 0.45 0.41 0.37 0.35 0.32 0.32 0.32 0.32 0.26 0.29 0.27 0.25 0.24 0.27 0.30 0.34 0.43 0.56 0.58 0.58 0.58 0.59 0.59 0.57 0.57 0.58 0.60 0.61 0.62
0.45 0.47 0.50 0.47 0.43 0.37 0.33 0.32 0.31 0.30 0.27 0.26 0.25 0.22 0.22 0.23 0.25 0.25 0.26 0.30 0.42 0.51 0.58 0.57 0.57 0.57 0.56 0.54 0.54 0.56 0.57 0.57
0.50 0.49 0.50 0.46 0.40 0.32 0.30 0.31 0.29 0.30 0.28 0.26 0.23 0.21 0.22 0.21 0.23 0.23 0.23 0.23 0.25 0.32 0.43 0.54 0.55 0.57 0.57 0.57 0.56 0.54 0.53 0.55
0.48 0.46 0.45 0.44 0.35 0.32 0.30 0.29 0.29 0.31 0.30 0.26 0.22 0.20 0.21 0.21 0.22 0.22 0.20 0.21 0.20 0.21 0.23 0.28 0.33 0.40 0.50 0.55 0.56 0.56 0.55 0.54
0.46 0.46 0.43 0.39 0.35 0.33 0.31 0.29 0.31 0.31 0.30 0.26 0.21 0.19 0.20 0.20 0.19 0.20 0.18 0.19 0.19 0.18 0.20 0.20 0.22 0.20 0.21 0.26 0.35 0.48 0.53 0.55
0.40 0.38 0.36 0.37 0.36 0.34 0.32 0.32 0.31 0.29 0.26 0.24 0.23 0.20 0.20 0.20 0.18 0.18 0.17 0.16 0.16 0.17 0.19 0.19 0.21 0.21 0.18 0.17 0.17 0.19 0.22 0.27
0.36 0.34 0.36 0.38 0.38 0.36 0.36 0.33 0.29 0.27 0.25 0.24 0.22 0.19 0.19 0.19 0.19 0.17 0.14 0.15 0.15 0.15 0.16 0.17 0.18 0.21 0.20 0.16 0.16 0.15 0.16 0.15
0.34 0.33 0.36 0.38 0.39 0.39 0.36 0.32 0.31 0.25 0.21 0.21 0.20 0.19 0.18 0.19 0.20 0.18 0.16 0.15 0.15 0.15 0.15 0.16 0.17 0.19 0.19 0.18 0.14 0.14 0.14 0.14
0.35 0.36 0.37 0.38 0.39 0.38 0.36 0.34 0.33 0.29 0.22 0.20 0.19 0.19 0.19 0.20 0.21 0.20 0.20 0.19 0.17 0.16 0.16 0.16 0.17 0.18 0.17 0.16 0.15 0.14 0.14 0.14